Men's 800 Meters
Top↑
| PL | NAME | YEAR | TEAM | TIME | TIME | TIME | TIME | TIME |
|---|---|---|---|---|---|---|---|---|
| 1 | Grayson Ruffner | FR-1 | UMBC | 1:53.23 | 1:56.63 | 1:52.10 | 2:07.95 | 1:48.70 |
| 2 | Sofiane Compaorg | SO-2 | UMBC | 1:53.34 | 1:48.81 | 1:31.81 | 1:26.14 | 1:19.34 |
| 3 | Conor Gross | SR-4 | Catholic | 1:53.92 | 1:55.06 | 2:17.85 | 2:23.54 | 1:31.14 |
| 4 | Liam Meginniss | JR-3 | UMBC | 1:54.11 | 1:59.82 | 1:25.59 | 1:59.82 | 1:44.99 |
| 5 | Thomas Foulkes | JR-3 | UMBC | 1:58.18 | 1:28.64 | 1:29.82 | 1:29.82 | 1:49.91 |
| 6 | Marquis Miller | SR-4 | UMBC | 1:58.18 | 2:06.46 | 2:07.64 | 1:28.64 | 1:23.91 |
| 7 | David Litvin | FR-1 | Temple | 1:58.30 | 2:07.77 | 2:01.85 | 2:13.68 | 1:44.11 |
| 8 | Folu Longe | Maryland Club Running | 1:59.73 | 1:25.01 | 1:45.37 | 2:33.26 | 2:24.88 | |
| 9 | Humed Nura | SO-2 | Coppin State | 2:00.81 | 2:10.48 | 2:28.60 | 1:49.94 | 2:11.69 |
| 10 | Brian Lau | Senior | Maryland Club Running | 2:01.18 | 2:01.18 | 2:36.33 | 2:26.63 | 1:43.01 |
| 11 | Abraham Eason | FR-1 | Mount St. Mary's | 2:02.56 | 1:55.21 | 1:50.31 | 2:30.75 | 2:11.14 |
| 12 | Brandon Smith | FR-1 | Mount St. Mary's | 2:02.66 | 2:03.89 | 2:07.57 | 2:11.25 | 1:29.55 |
| 13 | Ibrahima Diallo | JR-3 | Staten Island | 2:02.67 | 2:12.49 | 1:25.87 | 1:43.05 | 1:52.86 |
| 14 | Logan Cyford | Maryland Club Running | 2:02.79 | 1:33.32 | 1:35.78 | 2:10.16 | 2:00.34 | |
| 15 | Patrick Griffin | SO-2 | Mount St. Mary's | 2:03.23 | 2:16.79 | 2:21.72 | 2:26.65 | 2:08.16 |
| 16 | Kidus Chanyalew | FR-1 | Mount St. Mary's | 2:03.30 | 1:42.34 | 1:33.71 | 2:18.10 | 1:36.18 |
| 17 | Quinn Sullivan | Maryland Club Running | 2:05.59 | 2:36.99 | 1:32.94 | 2:16.90 | 2:26.94 | |
| 18 | Anthony Boscolo | Junior | Maryland Club Running | 2:06.02 | 1:35.78 | 1:42.08 | 1:55.94 | 1:44.60 |
| 19 | Shane Waring | FR-1 | Catholic | 2:06.33 | 1:56.23 | 1:52.44 | 2:06.33 | 2:44.23 |
| 20 | Logan Frazee | FR-1 | Stevenson | 2:07.46 | 2:22.76 | 2:18.94 | 2:11.29 | 2:11.29 |
| 21 | Jordan Love | Maryland Club Running | 2:07.62 | 1:40.82 | 2:01.24 | 2:40.81 | 1:49.76 | |
| 22 | Joshua Brown | SO-2 | CCBC Essex | 2:07.69 | 2:15.36 | 2:16.63 | 1:58.76 | 2:02.59 |
| 23 | Nathan Hondros | Maryland Club Running | 2:07.88 | 2:15.56 | 1:57.65 | 2:24.51 | 2:25.79 | |
| 24 | Diego Herrera | FR-1 | Mount St. Mary's | 2:08.08 | 2:42.67 | 1:29.66 | 2:32.42 | 1:45.03 |
| 25 | Cole Smith | FR-1 | Stevenson | 2:08.38 | 1:45.28 | 1:29.87 | 2:40.48 | 1:38.86 |
| 26 | Jeshua Jerusalam | SO-2 | Carroll CC | 2:09.40 | 2:17.17 | 1:46.11 | 2:17.17 | 2:32.70 |
| 27 | Henry Prunty | FR-1 | Temple | 2:10.06 | 1:33.65 | 2:02.26 | 2:43.88 | 1:59.66 |
| 28 | Isaiah Halley | SR-4 | Stevenson | 2:12.35 | 2:26.91 | 2:25.59 | 2:00.44 | 1:47.21 |
| 29 | Louis Jacks | SR-4 | Mount St. Mary's | 2:13.11 | 1:41.17 | 2:10.45 | 2:02.47 | 1:42.50 |
| 30 | Aidan Henry | Unattached | 2:14.71 | 1:34.30 | 1:58.55 | 2:05.28 | 2:18.76 | |
| 31 | Charles Lations | Maryland Club Running | 2:18.66 | 2:50.56 | 2:32.53 | 2:20.05 | 1:55.09 | |
| 32 | Dylan Navarro | SR-4 | Mount St. Mary's | 2:20.38 | 1:50.90 | 2:52.67 | 2:37.23 | 2:30.21 |
| 33 | Logan Merkle | FR-1 | Stevenson | 2:23.71 | 1:54.97 | 3:05.39 | 2:38.09 | 2:00.72 |
| 34 | Elijah Clark | FR-1 | Camden County College | 2:24.39 | 1:59.85 | 2:04.18 | 1:51.18 | 2:34.50 |
| 35 | Jordy Albarran | Maryland Club Running | 2:49.14 | 2:42.38 | 2:55.91 | 3:14.51 | 2:01.78 | |
| 36 | Uma Wancowicz | Towson University Track Club | 2:57.27 | 3:16.77 | 3:29.18 | 2:34.23 | 3:32.73 | |
| Daron Taylor | SR-4 | UMBC | DNF | DNF | DNF | DNF | DNF | |
| Justin Banks | FR-1 | UMBC | DNS | DNS | DNS | DNS | DNS | |
| Da'Shawn Keller | SO-2 | Delaware State | DNS | DNS | DNS | DNS | DNS | |
| Ian Cain | FR-1 | Delaware State | DNS | DNS | DNS | DNS | DNS | |
| Abdul Radzak | JR-3 | Coppin State | DNF | DNF | DNF | DNF | DNF | |
| Matt Filliben | JR-3 | Mount St. Mary's | DNS | DNS | DNS | DNS | DNS | |
| Gus Howard | FR-1 | Catholic | DNS | DNS | DNS | DNS | DNS | |
| Patrick Simpson | SO-2 | Mount St. Mary's | DNS | DNS | DNS | DNS | DNS | |
| Devyn Lewis | SR-4 | Mount St. Mary's | DNF | DNF | DNF | DNF | DNF | |
| Lloyd Braxton | Unattached | DNF | DNF | DNF | DNF | DNF | ||
| Colin Smith | Maryland Club Running | DNS | DNS | DNS | DNS | DNS | ||
| Terrance Howard JR | FR-1 | Stevenson | DNS | DNS | DNS | DNS | DNS | |
| Joel Ukpelegbu | Maryland Club Running | DNF | DNF | DNF | DNF | DNF | ||
| Julian Paglia | SO-2 | Stevenson | DNS | DNS | DNS | DNS | DNS | |
| Anthony Hagan | SO-2 | Stevenson | DNS | DNS | DNS | DNS | DNS | |
| Nathan Chen | Maryland Club Running | DNS | DNS | DNS | DNS | DNS |
Men's 800 Meters Section 1
| PL | NAME | YEAR | TEAM | TIME | TIME | TIME | TIME | TIME |
|---|---|---|---|---|---|---|---|---|
| 1 | Grayson Ruffner | FR-1 | UMBC | 1:40.78 | 1:23.79 | 2:00.03 | 1:53.23 | 1:36.25 |
| 2 | Sofiane Compaorg | SO-2 | UMBC | 2:19.41 | 1:28.41 | 1:40.88 | 1:53.34 | 1:51.08 |
| 3 | Conor Gross | SR-4 | Catholic | 1:33.42 | 1:19.75 | 1:31.14 | 1:53.92 | 1:44.81 |
| 4 | Liam Meginniss | JR-3 | UMBC | 2:28.35 | 2:11.23 | 1:51.83 | 1:54.11 | 1:50.69 |
| Daron Taylor | SR-4 | UMBC | DNF | DNF | DNF | DNF | DNF | |
| Justin Banks | FR-1 | UMBC | DNS | DNS | DNS | DNS | DNS | |
| Da'Shawn Keller | SO-2 | Delaware State | DNS | DNS | DNS | DNS | DNS | |
| Ian Cain | FR-1 | Delaware State | DNS | DNS | DNS | DNS | DNS |
Men's 800 Meters Section 2
| PL | NAME | YEAR | TEAM | TIME | TIME | TIME | TIME | TIME | TIME | TIME |
|---|---|---|---|---|---|---|---|---|---|---|
| 5 | Thomas Foulkes | JR-3 | UMBC | 2:05.27 | 1:59.37 | 1:58.18 | 2:31.27 | 2:26.55 | 1:54.64 | 2:18.27 |
| 6 | Marquis Miller | SR-4 | UMBC | 2:14.73 | 2:01.73 | 1:58.18 | 1:53.46 | 2:23.00 | 2:05.27 | 1:49.91 |
| 8 | Folu Longe | Maryland Club Running | 1:54.94 | 2:32.06 | 1:59.73 | 2:30.86 | 2:11.71 | 1:28.60 | 1:39.38 | |
| 9 | Humed Nura | SO-2 | Coppin State | 1:37.86 | 2:24.98 | 2:00.81 | 2:35.85 | 2:21.35 | 1:31.82 | 1:49.94 |
| 13 | Ibrahima Diallo | JR-3 | Staten Island | 2:35.79 | 2:28.43 | 2:02.67 | 1:40.59 | 1:34.46 | 1:58.99 | 2:30.89 |
| Abdul Radzak | JR-3 | Coppin State | DNF | DNF | DNF | DNF | DNF | DNF | DNF | |
| Matt Filliben | JR-3 | Mount St. Mary's | DNS | DNS | DNS | DNS | DNS | DNS | DNS | |
| Gus Howard | FR-1 | Catholic | DNS | DNS | DNS | DNS | DNS | DNS | DNS |
Men's 800 Meters Section 3
| PL | NAME | YEAR | TEAM | TIME | TIME | TIME | TIME | TIME |
|---|---|---|---|---|---|---|---|---|
| 7 | David Litvin | FR-1 | Temple | 1:58.30 | 1:55.94 | 1:35.83 | 2:26.70 | 2:04.22 |
| 10 | Brian Lau | Senior | Maryland Club Running | 2:01.18 | 2:30.27 | 1:41.80 | 2:08.45 | 1:44.22 |
| 12 | Brandon Smith | FR-1 | Mount St. Mary's | 2:02.66 | 1:45.49 | 1:38.13 | 2:38.24 | 2:19.84 |
| 14 | Logan Cyford | Maryland Club Running | 2:02.79 | 2:35.95 | 2:34.72 | 1:25.96 | 1:40.69 | |
| 15 | Patrick Griffin | SO-2 | Mount St. Mary's | 2:03.23 | 1:47.21 | 1:39.82 | 2:19.25 | 1:49.68 |
| 24 | Diego Herrera | FR-1 | Mount St. Mary's | 2:08.08 | 1:32.22 | 2:13.21 | 2:37.54 | 1:48.87 |
| 32 | Dylan Navarro | SR-4 | Mount St. Mary's | 2:20.38 | 1:41.08 | 2:20.38 | 2:54.08 | 2:26.00 |
| Patrick Simpson | SO-2 | Mount St. Mary's | DNS | DNS | DNS | DNS | DNS |
Men's 800 Meters Section 4
| PL | NAME | YEAR | TEAM | TIME | TIME |
|---|---|---|---|---|---|
| 11 | Abraham Eason | FR-1 | Mount St. Mary's | 2:02.56 | 1:46.63 |
| 16 | Kidus Chanyalew | FR-1 | Mount St. Mary's | 2:03.30 | 2:15.63 |
| 17 | Quinn Sullivan | Maryland Club Running | 2:05.59 | 2:13.13 | |
| 18 | Anthony Boscolo | Junior | Maryland Club Running | 2:06.02 | 2:32.49 |
| 19 | Shane Waring | FR-1 | Catholic | 2:06.33 | 2:17.70 |
| 21 | Jordan Love | Maryland Club Running | 2:07.62 | 1:31.89 | |
| 29 | Louis Jacks | SR-4 | Mount St. Mary's | 2:13.11 | 2:09.12 |
| Devyn Lewis | SR-4 | Mount St. Mary's | DNF | DNF |
Men's 800 Meters Section 5
| PL | NAME | YEAR | TEAM | TIME | TIME | TIME | TIME | TIME | TIME |
|---|---|---|---|---|---|---|---|---|---|
| 20 | Logan Frazee | FR-1 | Stevenson | 2:12.56 | 2:26.58 | 1:54.72 | 1:55.99 | 2:07.46 | 2:40.60 |
| 26 | Jeshua Jerusalam | SO-2 | Carroll CC | 1:40.94 | 1:46.11 | 1:47.41 | 1:59.05 | 2:09.40 | 1:47.41 |
| 30 | Aidan Henry | Unattached | 1:34.30 | 2:32.23 | 1:51.81 | 1:43.73 | 2:14.71 | 2:13.37 | |
| 31 | Charles Lations | Maryland Club Running | 2:54.72 | 2:29.76 | 1:45.39 | 1:50.93 | 2:18.66 | 1:48.16 | |
| 34 | Elijah Clark | FR-1 | Camden County College | 2:47.50 | 3:00.49 | 2:56.16 | 2:14.29 | 2:24.39 | 1:55.52 |
| Lloyd Braxton | Unattached | DNF | DNF | DNF | DNF | DNF | DNF | ||
| Colin Smith | Maryland Club Running | DNS | DNS | DNS | DNS | DNS | DNS | ||
| Terrance Howard JR | FR-1 | Stevenson | DNS | DNS | DNS | DNS | DNS | DNS |
Men's 800 Meters Section 6
| PL | NAME | YEAR | TEAM | TIME |
|---|---|---|---|---|
| 22 | Joshua Brown | SO-2 | CCBC Essex | 2:07.69 |
| 23 | Nathan Hondros | Maryland Club Running | 2:07.88 | |
| 25 | Cole Smith | FR-1 | Stevenson | 2:08.38 |
| 28 | Isaiah Halley | SR-4 | Stevenson | 2:12.35 |
| 33 | Logan Merkle | FR-1 | Stevenson | 2:23.71 |
| Joel Ukpelegbu | Maryland Club Running | DNF | ||
| Julian Paglia | SO-2 | Stevenson | DNS | |
| Anthony Hagan | SO-2 | Stevenson | DNS |
Men's 800 Meters Section 7
| PL | NAME | YEAR | TEAM | TIME | TIME | TIME | TIME | TIME | TIME |
|---|---|---|---|---|---|---|---|---|---|
| 27 | Henry Prunty | FR-1 | Temple | 1:55.76 | 2:30.87 | 1:59.66 | 2:45.18 | 1:42.75 | 2:10.06 |
| 35 | Jordy Albarran | Maryland Club Running | 2:42.38 | 2:28.85 | 2:55.91 | 2:50.84 | 3:38.19 | 2:49.14 | |
| 36 | Uma Wancowicz | Towson University Track Club | 2:09.41 | 2:30.68 | 2:44.87 | 3:32.73 | 3:46.91 | 2:57.27 | |
| Nathan Chen | Maryland Club Running | DNS | DNS | DNS | DNS | DNS | DNS |




